OE-11141 Weather Reports


time (UTC)temp
C
wind
direction
speed
KPH
gust
KPH
rain 1hr
cm
rain 24hr
cm
rain mn
cm
humidity
%
barometer
mb
20260903084117 19 151 3.2 6.4 0.00 0.00 0.00 62 1022.3
20260903083505 19 140 3.2 9.7 0.00 0.00 0.00 63 1022.4
20260903082505 19 80 3.2 6.4 0.00 0.00 0.00 63 1022.3
20260903081118 19 111 3.2 6.4 0.00 0.00 0.00 66 1022.3
20260903080505 18 146 3.2 6.4 0.00 0.00 0.00 68 1022.7
20260903075505 18 147 3.2 8.0 0.00 0.00 0.00 69 1022.9
20260903074118 17 132 3.2 6.4 0.00 0.00 0.00 71 1022.9
20260903073504 17 152 3.2 6.4 0.00 0.00 0.00 73 1023.1
20260903072504 17 143 4.8 9.7 0.00 0.00 0.00 75 1023.1
20260903071118 16 141 4.8 9.7 0.00 0.00 0.00 81 1023.2
20260903070505 17 107 1.6 4.8 0.00 0.00 0.00 80 1023.2
20260903065505 16 153 6.4 9.7 0.00 0.00 0.00 83 1023.3
20260903064117 16 150 3.2 8.0 0.00 0.00 0.00 83 1023.5
20260903063504 16 145 3.2 6.4 0.00 0.00 0.00 84 1023.5
20260903062505 15 148 3.2 4.8 0.00 0.00 0.00 84 1023.5
20260903061118 15 219 1.6 3.2 0.00 0.00 0.00 85 1023.7
20260903060505 15 23 1.6 3.2 0.00 0.00 0.00 86 1023.6
20260903055504 15 355 1.6 3.2 0.00 0.00 0.00 87 1023.5
20260903054117 15 148 3.2 6.4 0.00 0.00 0.00 88 1023.5
20260903053504 15 121 1.6 4.8 0.00 0.00 0.00 87 1023.4
20260903052505 15 161 1.6 6.4 0.00 0.00 0.00 86 1023.3
20260903051118 15 166 3.2 4.8 0.00 0.00 0.00 86 1023.2
20260903050504 15 128 3.2 4.8 0.00 0.00 0.00 89 1023.2
20260903045505 15 188 0.0 6.4 0.00 0.00 0.00 89 1023.2
20260903044117 15 341 1.6 8.0 0.00 0.00 0.00 87 1022.8
20260903043505 15 152 3.2 6.4 0.00 0.00 0.00 87 1023.2
20260903042505 15 148 1.6 4.8 0.00 0.00 0.00 88 1023.1
20260903041117 15 144 4.8 8.0 0.00 0.00 0.00 88 1022.9
20260903040505 15 204 1.6 6.4 0.00 0.00 0.00 88 1022.9
20260903035505 15 153 1.6 4.8 0.00 0.00 0.00 88 1023.1
20260903034504 15 104 3.2 4.8 0.00 0.00 0.00 87 1023.1
20260903033504 15 155 3.2 9.7 0.00 0.00 0.00 88 1022.9
20260903032505 15 143 4.8 9.7 0.00 0.00 0.00 87 1022.8
20260903031118 15 166 1.6 3.2 0.00 0.00 0.00 87 1022.8
20260903030505 15 41 1.6 6.4 0.00 0.00 0.00 87 1022.8
20260903025505 15 150 3.2 6.4 0.00 0.00 0.00 86 1022.8
20260903024505 15 116 3.2 6.4 0.00 0.00 0.00 87 1022.9
20260903023505 15 205 1.6 4.8 0.00 0.00 0.00 86 1022.8
20260903022505 15 62 1.6 4.8 0.00 0.00 0.00 88 1022.8
20260903021117 15 252 0.0 3.2 0.00 0.00 0.00 87 1022.8
20260903020505 15 120 1.6 6.4 0.00 0.00 0.00 87 1022.7
20260903015505 15 321 1.6 6.4 0.00 0.00 0.00 86 1022.8
20260903014117 15 121 1.6 4.8 0.00 0.00 0.00 86 1022.8
20260903013504 15 110 1.6 4.8 0.00 0.00 0.00 86 1022.8
20260903012504 15 250 1.6 6.4 0.00 0.00 0.00 85 1022.8
20260903011118 15 99 1.6 4.8 0.00 0.00 0.00 86 1022.7
20260903010505 15 62 1.6 3.2 0.00 0.00 0.00 84 1022.7
20260903005505 15 301 1.6 4.8 0.00 0.00 0.00 85 1022.8
20260903004118 15 360 0.0 3.2 0.00 0.00 0.00 84 1022.7
20260903003505 15 137 1.6 3.2 0.00 0.00 0.00 84 1022.7
20260903002505 15 75 1.6 3.2 0.00 0.00 0.00 84 1022.7
20260903001517 15 172 0.0 3.2 0.00 0.00 0.00 83 1022.7
20260903000504 15 154 4.8 8.0 0.00 0.00 0.00 84 1022.7
20260902235504 15 178 0.0 6.4 0.00 0.00 0.00 84 1022.7
20260902234118 16 134 3.2 8.0 0.00 0.00 0.00 83 1022.6
20260902233504 15 148 3.2 4.8 0.00 0.00 0.00 85 1022.7
20260902232504 15 160 0.0 4.8 0.00 0.00 0.00 85 1022.6
20260902231505 15 43 1.6 6.4 0.00 0.00 0.00 84 1022.5
20260902230504 16 163 1.6 4.8 0.00 0.00 0.00 83 1022.4
20260902225505 16 113 1.6 4.8 0.00 0.00 0.00 83 1022.3
20260902224118 15 143 1.6 3.2 0.00 0.00 0.00 84 1022.3
20260902223505 16 356 1.6 3.2 0.00 0.00 0.00 82 1022.1
20260902222505 16 328 1.6 4.8 0.00 0.00 0.00 82 1022.0
20260902221118 16 137 1.6 3.2 0.00 0.00 0.00 82 1021.9
20260902220504 17 346 1.6 4.8 0.00 0.00 0.00 79 1021.8
20260902215504 17 328 1.6 6.4 0.00 0.00 0.00 78 1021.6
20260902214118 17 137 3.2 6.4 0.00 0.00 0.00 76 1021.5
20260902213504 17 152 4.8 8.0 0.00 0.00 0.00 80 1021.6
20260902211119 17 353 3.2 4.8 0.00 0.00 0.00 76 1021.1
20260902210505 18 194 1.6 8.0 0.00 0.00 0.00 73 1021.0
20260902205505 17 157 8.0 12.9 0.00 0.00 0.00 73 1021.1
20260902204119 17 128 4.8 8.0 0.00 0.00 0.00 77 1021.0
20260902203504 18 147 4.8 9.7 0.00 0.00 0.00 73 1020.9
20260902202505 18 171 8.0 16.1 0.00 0.00 0.00 72 1020.9
20260902201118 18 140 6.4 14.5 0.00 0.00 0.00 68 1020.8
20260902200505 18 148 6.4 11.3 0.00 0.00 0.00 69 1020.7
20260902195505 18 172 6.4 14.5 0.00 0.00 0.00 68 1020.7
20260902194118 18 162 9.7 20.9 0.00 0.00 0.00 69 1020.6
20260902193505 18 147 6.4 12.9 0.00 0.00 0.00 68 1020.5
20260902192504 19 145 9.7 17.7 0.00 0.00 0.00 67 1020.3
20260902191118 19 145 8.0 16.1 0.00 0.00 0.00 67 1020.3
20260902190504 19 128 6.4 12.9 0.00 0.00 0.00 66 1020.2
20260902185505 20 132 4.8 9.7 0.00 0.00 0.00 63 1020.0
20260902184118 20 151 6.4 12.9 0.00 0.00 0.00 62 1019.7
20260902183505 20 142 4.8 9.7 0.00 0.00 0.00 62 1019.3
20260902182505 21 160 3.2 8.0 0.00 0.00 0.00 60 1019.0
20260902181118 21 175 4.8 8.0 0.00 0.00 0.00 60 1018.8
20260902180505 21 244 1.6 17.7 0.00 0.00 0.00 57 1018.6
20260902175505 22 17 9.7 20.9 0.00 0.00 0.00 53 1018.2
20260902174118 22 23 9.7 24.1 0.00 0.00 0.00 53 1018.0
20260902173504 22 18 11.3 24.1 0.00 0.00 0.00 52 1017.6
20260902172505 22 26 12.9 25.7 0.00 0.00 0.00 50 1017.4
20260902171118 23 44 9.7 22.5 0.00 0.00 0.00 49 1017.3
20260902170505 23 16 6.4 17.7 0.00 0.00 0.00 49 1017.1
20260902165505 23 26 11.3 27.4 0.00 0.00 0.00 46 1017.1
20260902164118 24 18 14.5 22.5 0.00 0.00 0.00 46 1017.0
20260902163505 24 7 14.5 25.7 0.00 0.00 0.00 46 1016.8
20260902162505 24 357 12.9 25.7 0.00 0.00 0.00 45 1016.7
20260902161118 25 4 12.9 20.9 0.00 0.00 0.00 44 1016.5
20260902160504 25 33 6.4 20.9 0.00 0.00 0.00 42 1016.4
20260902155505 26 353 8.0 16.1 0.00 0.00 0.00 40 1016.3
20260902154118 26 350 8.0 14.5 0.00 0.00 0.00 39 1016.2
20260902153505 26 17 9.7 19.3 0.00 0.00 0.00 39 1016.3
20260902152504 25 25 9.7 22.5 0.00 0.00 0.00 39 1016.5
20260902151118 25 14 14.5 22.5 0.00 0.00 0.00 38 1016.6
20260902150505 25 10 12.9 20.9 0.00 0.00 0.00 39 1016.6
20260902145505 25 359 14.5 22.5 0.00 0.00 0.00 40 1016.7
20260902144118 25 15 11.3 20.9 0.00 0.00 0.00 40 1016.6
20260902143504 25 2 12.9 22.5 0.00 0.00 0.00 43 1016.7
20260902142505 25 10 16.1 27.4 0.00 0.00 0.00 41 1016.8
20260902141118 25 360 12.9 20.9 0.00 0.00 0.00 42 1016.9
20260902140505 25 360 16.1 29.0 0.00 0.00 0.00 42 1016.9
20260902135505 25 13 14.5 24.1 0.00 0.00 0.00 45 1017.0
20260902134116 24 12 16.1 24.1 0.00 0.00 0.00 46 1017.0
20260902133505 24 16 16.1 29.0 0.00 0.00 0.00 46 1017.0
20260902132505 25 10 17.7 29.0 0.00 0.00 0.00 45 1017.1
20260902131118 24 12 17.7 27.4 0.00 0.00 0.00 46 1017.2
20260902130505 25 11 17.7 27.4 0.00 0.00 0.00 45 1017.2
20260902125505 24 4 16.1 25.7 0.00 0.00 0.00 45 1017.2
20260902124117 25 1 14.5 24.1 0.00 0.00 0.00 43 1017.2
20260902123505 25 4 14.5 20.9 0.00 0.00 0.00 42 1017.4
20260902122505 25 353 12.9 17.7 0.00 0.00 0.00 42 1017.4
20260902121118 25 357 9.7 19.3 0.00 0.00 0.00 44 1017.6
20260902120504 25 3 6.4 12.9 0.00 0.00 0.00 41 1017.6
20260902115504 25 358 6.4 11.3 0.00 0.00 0.00 37 1017.7
20260902114118 25 350 4.8 11.3 0.00 0.00 0.00 41 1017.8
20260902113505 25 13 1.6 4.8 0.00 0.00 0.00 39 1018.0
20260902112505 24 5 3.2 8.0 0.00 0.00 0.00 38 1018.3
20260902111118 24 11 4.8 9.7 0.00 0.00 0.00 41 1018.4
20260902110505 23 349 4.8 11.3 0.00 0.00 0.00 44 1018.6
20260902105504 23 322 4.8 9.7 0.00 0.00 0.00 45 1018.7
20260902104118 22 309 4.8 11.3 0.00 0.00 0.00 47 1019.1
20260902103505 22 325 4.8 9.7 0.00 0.00 0.00 50 1019.3
20260902102504 21 316 1.6 3.2 0.00 0.00 0.00 54 1019.8
20260902101118 21 271 1.6 3.2 0.00 0.00 0.00 55 1020.0
20260902100505 20 164 1.6 3.2 0.00 0.00 0.00 55 1020.2
20260902095505 20 229 1.6 3.2 0.00 0.00 0.00 58 1020.5
20260902094118 20 295 1.6 4.8 0.00 0.00 0.00 60 1020.7
20260902093505 19 214 1.6 3.2 0.00 0.00 0.00 59 1021.1
20260902092504 18 251 1.6 3.2 0.00 0.00 0.00 63 1021.2
20260902091117 18 323 0.0 3.2 0.00 0.00 0.00 65 1021.4
20260902090505 18 360 0.0 3.2 0.00 0.00 0.00 67 1021.6